Time,TemperatureF,DewpointF,PressureIn,WindDirection,WindDirectionDegrees,WindSpeedMPH,WindSpeedGustMPH,Humidity,HourlyPrecipIn,Conditions,Clouds,dailyrainin,SoftwareType,DateUTC
2013-01-27 00:00:00,37.0,20.1,30.33,North,0,0.0,0.0,50,0.00,CLR,FEW,0.00,WeatherDisplay:10.37,2013-01-27 05:00:00,
2013-01-27 00:01:00,37.0,20.1,30.33,North,0,0.0,0.0,50,0.00,CLR,FEW,0.00,WeatherDisplay:10.37,2013-01-27 05:01:00,
2013-01-27 00:02:00,37.2,20.3,30.33,North,0,0.0,0.0,50,0.00,CLR,FEW,0.00,WeatherDisplay:10.37,2013-01-27 05:02:00,
2013-01-27 00:08:00,37.2,20.3,30.33,North,0,0.0,0.0,50,0.00,CLR,FEW,0.00,WeatherDisplay:10.37,2013-01-27 05:08:00,
2013-01-27 00:13:00,37.2,20.3,30.36,North,0,0.0,0.0,50,0.00,CLR,FEW,0.00,WeatherDisplay:10.37,2013-01-27 05:13:00,
2013-01-27 00:18:00,37.0,20.1,30.36,North,0,0.0,0.0,50,0.00,CLR,FEW,0.00,WeatherDisplay:10.37,2013-01-27 05:18:00,
2013-01-27 00:23:00,36.9,20.4,30.36,North,0,0.0,0.0,51,0.00,CLR,FEW,0.00,WeatherDisplay:10.37,2013-01-27 05:23:00,
2013-01-27 00:28:00,36.9,20.4,30.36,North,0,0.0,0.0,51,0.00,CLR,FEW,0.00,WeatherDisplay:10.37,2013-01-27 05:28:00,
2013-01-27 00:33:00,36.9,20.4,30.36,North,0,0.0,0.0,51,0.00,CLR,FEW,0.00,WeatherDisplay:10.37,2013-01-27 05:33:00,
2013-01-27 00:38:00,36.9,20.4,30.36,North,0,0.0,0.0,51,0.00,CLR,FEW,0.00,WeatherDisplay:10.37,2013-01-27 05:38:00,
2013-01-27 00:43:00,36.9,20.4,30.36,North,0,0.0,0.0,51,0.00,CLR,FEW,0.00,WeatherDisplay:10.37,2013-01-27 05:43:00,
2013-01-27 00:48:00,36.9,20.4,30.36,North,0,0.0,0.0,51,0.00,CLR,FEW,0.00,WeatherDisplay:10.37,2013-01-27 05:48:00,
2013-01-27 00:53:00,36.9,20.4,30.36,North,0,0.0,0.0,51,0.00,CLR,FEW,0.00,WeatherDisplay:10.37,2013-01-27 05:53:00,
2013-01-27 00:58:00,36.9,20.4,30.36,North,0,0.0,0.0,51,0.00,CLR,FEW,0.00,WeatherDisplay:10.37,2013-01-27 05:58:00,
2013-01-27 01:03:00,36.9,19.9,30.36,North,0,0.0,0.0,50,0.00,CLR,FEW,0.00,WeatherDisplay:10.37,2013-01-27 06:03:00,
2013-01-27 01:08:00,36.7,19.8,30.36,North,0,0.0,0.0,50,0.00,CLR,FEW,0.00,WeatherDisplay:10.37,2013-01-27 06:08:00,
2013-01-27 01:13:00,36.7,19.3,30.36,North,0,0.0,0.0,49,0.00,CLR,FEW,0.00,WeatherDisplay:10.37,2013-01-27 06:13:00,
2013-01-27 01:18:00,36.7,19.3,30.36,North,0,0.0,0.0,49,0.00,CLR,FEW,0.00,WeatherDisplay:10.37,2013-01-27 06:18:00,
2013-01-27 01:23:00,36.7,19.3,30.36,North,0,0.0,0.0,49,0.00,CLR,FEW,0.00,WeatherDisplay:10.37,2013-01-27 06:23:00,
2013-01-27 01:28:00,36.7,18.8,30.36,North,0,0.0,0.0,48,0.00,CLR,FEW,0.00,WeatherDisplay:10.37,2013-01-27 06:28:00,
2013-01-27 01:33:00,36.5,18.6,30.36,North,0,0.0,0.0,48,0.00,CLR,FEW,0.00,WeatherDisplay:10.37,2013-01-27 06:33:00,
2013-01-27 01:38:00,36.3,18.5,30.36,North,0,0.0,0.0,48,0.00,CLR,FEW,0.00,WeatherDisplay:10.37,2013-01-27 06:38:00,
2013-01-27 01:43:00,36.3,18.5,30.39,North,0,0.0,0.0,48,0.00,CLR,FEW,0.00,WeatherDisplay:10.37,2013-01-27 06:43:00,
2013-01-27 01:48:00,36.3,18.5,30.39,North,0,0.0,0.0,48,0.00,CLR,FEW,0.00,WeatherDisplay:10.37,2013-01-27 06:48:00,
2013-01-27 01:53:00,36.3,18.0,30.39,North,0,0.0,0.0,47,0.00,CLR,FEW,0.00,WeatherDisplay:10.37,2013-01-27 06:53:00,
2013-01-27 01:58:00,36.3,18.0,30.39,North,0,0.0,0.0,47,0.00,CLR,FEW,0.00,WeatherDisplay:10.37,2013-01-27 06:58:00,
2013-01-27 02:03:00,36.1,17.3,30.39,North,0,0.0,0.0,46,0.00,CLR,FEW,0.00,WeatherDisplay:10.37,2013-01-27 07:03:00,
2013-01-27 02:08:00,36.1,16.8,30.39,North,0,0.0,0.0,45,0.00,CLR,FEW,0.00,WeatherDisplay:10.37,2013-01-27 07:08:00,
2013-01-27 02:13:00,35.8,15.4,30.39,North,0,0.0,0.0,43,0.00,CLR,FEW,0.00,WeatherDisplay:10.37,2013-01-27 07:13:00,
2013-01-27 02:18:00,35.6,15.3,30.39,North,0,0.0,0.0,43,0.00,CLR,FEW,0.00,WeatherDisplay:10.37,2013-01-27 07:18:00,
2013-01-27 02:23:00,35.4,14.6,30.39,North,0,0.0,0.0,42,0.00,CLR,FEW,0.00,WeatherDisplay:10.37,2013-01-27 07:23:00,
2013-01-27 02:28:00,35.2,14.4,30.39,North,0,0.0,0.0,42,0.00,CLR,FEW,0.00,WeatherDisplay:10.37,2013-01-27 07:28:00,
2013-01-27 02:33:00,35.1,14.2,30.39,North,0,0.0,0.0,42,0.00,CLR,FEW,0.00,WeatherDisplay:10.37,2013-01-27 07:33:00,
2013-01-27 02:38:00,34.9,14.1,30.39,North,0,0.0,0.0,42,0.00,CLR,FEW,0.00,WeatherDisplay:10.37,2013-01-27 07:38:00,
2013-01-27 02:43:00,34.5,13.8,30.39,North,0,0.0,0.0,42,0.00,CLR,FEW,0.00,WeatherDisplay:10.37,2013-01-27 07:43:00,
2013-01-27 02:48:00,34.5,13.8,30.39,North,0,0.0,0.0,42,0.00,CLR,FEW,0.00,WeatherDisplay:10.37,2013-01-27 07:48:00,
2013-01-27 02:53:00,34.3,13.6,30.39,North,0,0.0,0.0,42,0.00,CLR,FEW,0.00,WeatherDisplay:10.37,2013-01-27 07:53:00,
2013-01-27 02:58:00,34.2,14.0,30.39,North,0,0.0,0.0,43,0.00,CLR,FEW,0.00,WeatherDisplay:10.37,2013-01-27 07:58:00,
2013-01-27 03:03:00,34.0,13.8,30.39,North,0,0.0,0.0,43,0.00,CLR,FEW,0.00,WeatherDisplay:10.37,2013-01-27 08:03:00,
2013-01-27 03:08:00,34.0,13.8,30.39,North,0,0.0,0.0,43,0.00,CLR,FEW,0.00,WeatherDisplay:10.37,2013-01-27 08:08:00,
2013-01-27 03:13:00,33.8,13.6,30.39,North,0,0.0,0.0,43,0.00,CLR,FEW,0.00,WeatherDisplay:10.37,2013-01-27 08:13:00,
2013-01-27 03:18:00,33.8,13.6,30.39,North,0,0.0,0.0,43,0.00,CLR,FEW,0.00,WeatherDisplay:10.37,2013-01-27 08:18:00,
2013-01-27 03:23:00,33.6,14.0,30.39,North,0,0.0,0.0,44,0.00,CLR,FEW,0.00,WeatherDisplay:10.37,2013-01-27 08:23:00,
2013-01-27 03:28:00,33.6,14.0,30.39,North,0,0.0,0.0,44,0.00,CLR,FEW,0.00,WeatherDisplay:10.37,2013-01-27 08:28:00,
2013-01-27 03:33:00,33.4,13.8,30.39,North,0,0.0,0.0,44,0.00,CLR,FEW,0.00,WeatherDisplay:10.37,2013-01-27 08:33:00,
2013-01-27 03:38:00,33.4,13.8,30.39,North,0,0.0,0.0,44,0.00,CLR,FEW,0.00,WeatherDisplay:10.37,2013-01-27 08:38:00,
2013-01-27 03:43:00,33.3,13.7,30.39,North,0,0.0,0.0,44,0.00,CLR,FEW,0.00,WeatherDisplay:10.37,2013-01-27 08:43:00,
2013-01-27 03:48:00,33.3,13.7,30.39,North,0,0.0,0.0,44,0.00,CLR,FEW,0.00,WeatherDisplay:10.37,2013-01-27 08:48:00,
2013-01-27 03:53:00,33.1,14.0,30.39,North,0,0.0,0.0,45,0.00,CLR,FEW,0.00,WeatherDisplay:10.37,2013-01-27 08:53:00,
2013-01-27 03:58:00,33.1,14.0,30.39,North,0,0.0,0.0,45,0.00,CLR,FEW,0.00,WeatherDisplay:10.37,2013-01-27 08:58:00,
2013-01-27 04:03:00,33.1,14.0,30.39,North,0,0.0,0.0,45,0.00,CLR,FEW,0.00,WeatherDisplay:10.37,2013-01-27 09:03:00,
2013-01-27 04:08:00,32.9,13.9,30.39,North,0,0.0,0.0,45,0.00,CLR,FEW,0.00,WeatherDisplay:10.37,2013-01-27 09:08:00,
2013-01-27 04:13:00,32.9,14.4,30.39,North,0,0.0,0.0,46,0.00,CLR,FEW,0.00,WeatherDisplay:10.37,2013-01-27 09:13:00,
2013-01-27 04:18:00,32.7,14.2,30.39,North,0,0.0,0.0,46,0.00,CLR,FEW,0.00,WeatherDisplay:10.37,2013-01-27 09:18:00,
2013-01-27 04:23:00,32.7,14.2,30.39,North,0,0.0,0.0,46,0.00,CLR,FEW,0.00,WeatherDisplay:10.37,2013-01-27 09:23:00,
2013-01-27 04:28:00,32.7,14.7,30.39,North,0,0.0,0.0,47,0.00,CLR,FEW,0.00,WeatherDisplay:10.37,2013-01-27 09:28:00,
2013-01-27 04:33:00,32.7,14.7,30.39,North,0,0.0,0.0,47,0.00,CLR,FEW,0.00,WeatherDisplay:10.37,2013-01-27 09:33:00,
2013-01-27 04:38:00,32.7,14.7,30.39,North,0,0.0,0.0,47,0.00,CLR,FEW,0.00,WeatherDisplay:10.37,2013-01-27 09:38:00,
2013-01-27 04:43:00,32.7,14.7,30.42,North,0,0.0,0.0,47,0.00,CLR,FEW,0.00,WeatherDisplay:10.37,2013-01-27 09:43:00,
2013-01-27 04:48:00,32.7,14.7,30.42,North,0,0.0,0.0,47,0.00,CLR,FEW,0.00,WeatherDisplay:10.37,2013-01-27 09:48:00,
2013-01-27 04:53:00,32.7,14.7,30.42,North,0,0.0,0.0,47,0.00,CLR,FEW,0.00,WeatherDisplay:10.37,2013-01-27 09:53:00,
2013-01-27 04:58:00,32.5,14.5,30.42,North,0,0.0,0.0,47,0.00,CLR,FEW,0.00,WeatherDisplay:10.37,2013-01-27 09:58:00,
2013-01-27 05:03:00,32.5,14.5,30.42,North,0,0.0,0.0,47,0.00,CLR,FEW,0.00,WeatherDisplay:10.37,2013-01-27 10:03:00,
2013-01-27 05:08:00,32.5,14.5,30.42,North,0,0.0,0.0,47,0.00,CLR,FEW,0.00,WeatherDisplay:10.37,2013-01-27 10:08:00,
2013-01-27 05:13:00,32.5,14.5,30.42,North,0,0.0,0.0,47,0.00,CLR,FEW,0.00,WeatherDisplay:10.37,2013-01-27 10:13:00,
2013-01-27 05:18:00,32.4,14.4,30.42,North,0,0.0,0.0,47,0.00,CLR,FEW,0.00,WeatherDisplay:10.37,2013-01-27 10:18:00,
2013-01-27 05:23:00,32.2,14.2,30.42,North,0,0.0,0.0,47,0.00,CLR,FEW,0.00,WeatherDisplay:10.37,2013-01-27 10:23:00,
2013-01-27 05:28:00,32.2,14.7,30.42,North,0,0.0,0.0,48,0.00,CLR,FEW,0.00,WeatherDisplay:10.37,2013-01-27 10:28:00,
2013-01-27 05:33:00,32.2,14.7,30.42,North,0,0.0,0.0,48,0.00,CLR,FEW,0.00,WeatherDisplay:10.37,2013-01-27 10:33:00,
2013-01-27 05:38:00,32.0,15.0,30.42,North,0,0.0,0.0,49,0.00,CLR,FEW,0.00,WeatherDisplay:10.37,2013-01-27 10:38:00,
2013-01-27 05:43:00,32.0,15.4,30.42,North,0,0.0,0.0,50,0.00,CLR,FEW,0.00,WeatherDisplay:10.37,2013-01-27 10:43:00,
2013-01-27 05:48:00,31.8,15.3,30.42,North,0,0.0,0.0,50,0.00,CLR,FEW,0.00,WeatherDisplay:10.37,2013-01-27 10:48:00,
2013-01-27 05:53:00,31.8,15.3,30.42,North,0,0.0,0.0,50,0.00,CLR,FEW,0.00,WeatherDisplay:10.37,2013-01-27 10:53:00,
2013-01-27 05:58:00,31.6,15.6,30.42,North,0,0.0,0.0,51,0.00,CLR,FEW,0.00,WeatherDisplay:10.37,2013-01-27 10:58:00,
2013-01-27 06:03:00,31.6,15.6,30.42,North,0,0.0,0.0,51,0.00,CLR,FEW,0.00,WeatherDisplay:10.37,2013-01-27 11:03:00,
2013-01-27 06:08:00,31.5,15.4,30.42,North,0,0.0,0.0,51,0.00,CLR,FEW,0.00,WeatherDisplay:10.37,2013-01-27 11:08:00,
2013-01-27 06:13:00,31.5,15.8,30.42,North,0,0.0,0.0,52,0.00,CLR,FEW,0.00,WeatherDisplay:10.37,2013-01-27 11:13:00,
2013-01-27 06:18:00,31.5,15.8,30.42,North,0,0.0,0.0,52,0.00,CLR,FEW,0.00,WeatherDisplay:10.37,2013-01-27 11:18:00,
2013-01-27 06:23:00,31.3,15.7,30.42,North,0,0.0,0.0,52,0.00,CLR,FEW,0.00,WeatherDisplay:10.37,2013-01-27 11:23:00,
2013-01-27 06:28:00,31.3,16.1,30.42,North,0,0.0,0.0,53,0.00,CLR,FEW,0.00,WeatherDisplay:10.37,2013-01-27 11:28:00,
2013-01-27 06:33:00,31.1,15.9,30.42,North,0,0.0,0.0,53,0.00,CLR,FEW,0.00,WeatherDisplay:10.37,2013-01-27 11:33:00,
2013-01-27 06:38:00,31.1,15.9,30.42,North,0,0.0,0.0,53,0.00,CLR,FEW,0.00,WeatherDisplay:10.37,2013-01-27 11:38:00,
2013-01-27 06:43:00,31.1,16.4,30.44,North,0,0.0,0.0,54,0.00,CLR,FEW,0.00,WeatherDisplay:10.37,2013-01-27 11:43:00,
2013-01-27 06:48:00,31.1,16.8,30.44,North,0,0.0,0.0,55,0.00,CLR,FEW,0.00,WeatherDisplay:10.37,2013-01-27 11:48:00,
2013-01-27 06:53:00,31.1,16.8,30.44,North,0,0.0,0.0,55,0.00,CLR,FEW,0.00,WeatherDisplay:10.37,2013-01-27 11:53:00,
2013-01-27 06:58:00,31.1,17.2,30.44,North,0,0.0,0.0,56,0.00,CLR,FEW,0.00,WeatherDisplay:10.37,2013-01-27 11:58:00,
2013-01-27 07:03:00,31.1,17.6,30.44,North,0,0.0,0.0,57,0.00,CLR,FEW,0.00,WeatherDisplay:10.37,2013-01-27 12:03:00,
2013-01-27 07:08:00,30.9,17.9,30.44,North,0,0.0,0.0,58,0.00,CLR,FEW,0.00,WeatherDisplay:10.37,2013-01-27 12:08:00,
2013-01-27 07:13:00,30.9,17.9,30.44,North,0,0.0,0.0,58,0.00,CLR,FEW,0.00,WeatherDisplay:10.37,2013-01-27 12:13:00,
2013-01-27 07:18:00,30.9,17.9,30.44,North,0,0.0,0.0,58,0.00,CLR,FEW,0.00,WeatherDisplay:10.37,2013-01-27 12:18:00,
2013-01-27 07:23:00,30.9,17.9,30.44,North,0,0.0,0.0,58,0.00,CLR,FEW,0.00,WeatherDisplay:10.37,2013-01-27 12:23:00,
2013-01-27 07:28:00,30.9,18.3,30.44,North,0,0.0,0.0,59,0.00,CLR,FEW,0.00,WeatherDisplay:10.37,2013-01-27 12:28:00,
2013-01-27 07:33:00,30.9,18.7,30.44,North,0,0.0,0.0,60,0.00,CLR,FEW,0.00,WeatherDisplay:10.37,2013-01-27 12:33:00,
2013-01-27 07:38:00,30.9,19.0,30.44,North,0,0.0,0.0,61,0.00,CLR,FEW,0.00,WeatherDisplay:10.37,2013-01-27 12:38:00,
2013-01-27 07:43:00,30.9,19.8,30.44,North,0,0.0,0.0,63,0.00,CLR,FEW,0.00,WeatherDisplay:10.37,2013-01-27 12:43:00,
2013-01-27 07:48:00,31.1,20.3,30.44,North,0,0.0,0.0,64,0.00,CLR,FEW,0.00,WeatherDisplay:10.37,2013-01-27 12:48:00,
2013-01-27 07:53:00,31.1,20.3,30.44,North,0,0.0,0.0,64,0.00,CLR,FEW,0.00,WeatherDisplay:10.37,2013-01-27 12:53:00,
2013-01-27 07:58:00,31.3,20.9,30.44,North,0,0.0,0.0,65,0.00,CLR,FEW,0.00,WeatherDisplay:10.37,2013-01-27 12:58:00,
2013-01-27 08:03:00,31.6,21.2,30.44,North,0,0.0,0.0,65,0.00,CLR,FEW,0.00,WeatherDisplay:10.37,2013-01-27 13:03:00,
2013-01-27 08:08:00,31.8,21.4,30.44,North,0,0.0,0.0,65,0.00,CLR,FEW,0.00,WeatherDisplay:10.37,2013-01-27 13:08:00,
2013-01-27 08:13:00,32.2,21.7,30.44,North,0,0.0,0.0,65,0.00,CLR,FEW,0.00,WeatherDisplay:10.37,2013-01-27 13:13:00,
2013-01-27 08:18:00,32.5,22.4,30.44,North,0,0.0,0.0,66,0.00,CLR,FEW,0.00,WeatherDisplay:10.37,2013-01-27 13:18:00,
2013-01-27 08:23:00,32.9,22.8,30.44,North,0,0.0,0.0,66,0.00,CLR,FEW,0.00,WeatherDisplay:10.37,2013-01-27 13:23:00,
2013-01-27 08:28:00,33.3,23.1,30.48,North,0,0.0,0.0,66,0.00,CLR,FEW,0.00,WeatherDisplay:10.37,2013-01-27 13:28:00,
2013-01-27 08:33:00,33.8,23.6,30.48,North,0,0.0,0.0,66,0.00,CLR,FEW,0.00,WeatherDisplay:10.37,2013-01-27 13:33:00,
2013-01-27 08:38:00,34.7,24.5,30.48,North,0,0.0,0.0,66,0.00,CLR,FEW,0.00,WeatherDisplay:10.37,2013-01-27 13:38:00,
2013-01-27 08:43:00,35.4,25.2,30.48,North,0,0.0,0.0,66,0.00,CLR,FEW,0.00,WeatherDisplay:10.37,2013-01-27 13:43:00,
2013-01-27 08:48:00,36.1,25.9,30.48,North,0,0.0,0.0,66,0.00,CLR,FEW,0.00,WeatherDisplay:10.37,2013-01-27 13:48:00,
2013-01-27 08:53:00,36.9,26.2,30.48,North,0,0.0,0.0,65,0.00,CLR,FEW,0.00,WeatherDisplay:10.37,2013-01-27 13:53:00,
2013-01-27 08:58:00,37.6,26.5,30.48,North,0,0.0,0.0,64,0.00,CLR,FEW,0.00,WeatherDisplay:10.37,2013-01-27 13:58:00,
2013-01-27 09:03:00,38.3,26.8,30.48,North,0,0.0,0.0,63,0.00,CLR,FEW,0.00,WeatherDisplay:10.37,2013-01-27 14:03:00,
2013-01-27 09:08:00,38.7,25.6,30.48,North,0,0.0,0.0,59,0.00,CLR,FEW,0.00,WeatherDisplay:10.37,2013-01-27 14:08:00,
2013-01-27 09:13:00,39.2,24.8,30.48,North,0,0.0,0.0,56,0.00,CLR,FEW,0.00,WeatherDisplay:10.37,2013-01-27 14:13:00,
2013-01-27 09:18:00,39.7,24.0,30.48,North,0,0.0,0.0,53,0.00,CLR,FEW,0.00,WeatherDisplay:10.37,2013-01-27 14:18:00,
2013-01-27 09:23:00,40.3,22.6,30.48,North,0,0.0,0.0,49,0.00,CLR,FEW,0.00,WeatherDisplay:10.37,2013-01-27 14:23:00,
2013-01-27 09:28:00,40.5,22.3,30.50,North,0,0.0,0.0,48,0.00,CLR,FEW,0.00,WeatherDisplay:10.37,2013-01-27 14:28:00,
2013-01-27 09:33:00,40.6,22.9,30.50,North,0,0.0,0.0,49,0.00,CLR,FEW,0.00,WeatherDisplay:10.37,2013-01-27 14:33:00,
2013-01-27 09:38:00,41.2,21.9,30.50,North,0,0.0,0.0,46,0.00,CLR,FEW,0.00,WeatherDisplay:10.37,2013-01-27 14:38:00,
2013-01-27 09:43:00,41.7,22.4,30.50,North,0,0.0,0.0,46,0.00,CLR,FEW,0.00,WeatherDisplay:10.37,2013-01-27 14:43:00,
2013-01-27 09:48:00,42.3,21.9,30.50,North,0,0.0,0.0,44,0.00,CLR,FEW,0.00,WeatherDisplay:10.37,2013-01-27 14:48:00,
2013-01-27 09:53:00,42.4,21.5,30.50,North,0,0.0,0.0,43,0.00,CLR,FEW,0.00,WeatherDisplay:10.37,2013-01-27 14:53:00,
2013-01-27 09:58:00,42.6,21.7,30.50,North,0,0.0,0.0,43,0.00,CLR,FEW,0.00,WeatherDisplay:10.37,2013-01-27 14:58:00,
2013-01-27 10:03:00,42.6,22.7,30.50,North,0,0.0,0.0,45,0.00,CLR,FEW,0.00,WeatherDisplay:10.37,2013-01-27 15:03:00,
2013-01-27 10:08:00,43.2,22.1,30.50,North,0,0.0,0.0,43,0.00,CLR,FEW,0.00,WeatherDisplay:10.37,2013-01-27 15:08:00,
2013-01-27 10:13:00,43.5,22.5,30.50,North,0,0.0,0.0,43,0.00,CLR,FEW,0.00,WeatherDisplay:10.37,2013-01-27 15:13:00,
2013-01-27 10:18:00,43.7,22.1,30.50,North,0,0.0,0.0,42,0.00,CLR,FEW,0.00,WeatherDisplay:10.37,2013-01-27 15:18:00,
2013-01-27 10:23:00,44.2,23.1,30.50,North,0,0.0,0.0,43,0.00,CLR,FEW,0.00,WeatherDisplay:10.37,2013-01-27 15:23:00,
2013-01-27 10:28:00,44.8,22.5,30.53,North,0,0.0,0.0,41,0.00,CLR,FEW,0.00,WeatherDisplay:10.37,2013-01-27 15:28:00,
2013-01-27 10:33:00,44.6,22.9,30.53,North,0,0.0,0.0,42,0.00,CLR,FEW,0.00,WeatherDisplay:10.37,2013-01-27 15:33:00,
2013-01-27 10:38:00,44.8,22.5,30.53,North,0,0.0,0.0,41,0.00,CLR,FEW,0.00,WeatherDisplay:10.37,2013-01-27 15:38:00,
2013-01-27 10:43:00,45.1,22.8,30.53,North,0,0.0,0.0,41,0.00,CLR,FEW,0.00,WeatherDisplay:10.37,2013-01-27 15:43:00,
2013-01-27 10:48:00,45.1,22.8,30.53,North,0,0.0,0.0,41,0.00,CLR,FEW,0.00,WeatherDisplay:10.37,2013-01-27 15:48:00,
2013-01-27 10:53:00,45.3,22.4,30.53,North,0,0.0,0.0,40,0.00,CLR,FEW,0.00,WeatherDisplay:10.37,2013-01-27 15:53:00,
2013-01-27 10:58:00,45.3,22.4,30.53,North,0,0.0,0.0,40,0.00,CLR,FEW,0.00,WeatherDisplay:10.37,2013-01-27 15:58:00,
2013-01-27 11:03:00,45.3,23.0,30.53,North,0,0.0,0.0,41,0.00,CLR,FEW,0.00,WeatherDisplay:10.37,2013-01-27 16:03:00,
2013-01-27 11:08:00,45.1,22.2,30.53,North,0,0.0,0.0,40,0.00,CLR,FEW,0.00,WeatherDisplay:10.37,2013-01-27 16:08:00,
2013-01-27 11:13:00,45.1,23.4,30.53,North,0,0.0,0.0,42,0.00,CLR,FEW,0.00,WeatherDisplay:10.37,2013-01-27 16:13:00,
2013-01-27 11:18:00,46.0,23.6,30.53,North,0,0.0,0.0,41,0.00,CLR,FEW,0.00,WeatherDisplay:10.37,2013-01-27 16:18:00,
2013-01-27 11:23:00,46.4,22.8,30.53,North,0,0.0,0.0,39,0.00,CLR,FEW,0.00,WeatherDisplay:10.37,2013-01-27 16:23:00,
2013-01-27 11:28:00,46.0,23.0,30.53,North,0,0.0,0.0,40,0.00,CLR,FEW,0.00,WeatherDisplay:10.37,2013-01-27 16:28:00,
2013-01-27 11:33:00,45.9,22.9,30.53,North,0,0.0,0.0,40,0.00,CLR,FEW,0.00,WeatherDisplay:10.37,2013-01-27 16:33:00,
2013-01-27 11:38:00,46.0,23.6,30.53,North,0,0.0,0.0,41,0.00,CLR,FEW,0.00,WeatherDisplay:10.37,2013-01-27 16:38:00,
2013-01-27 11:43:00,46.2,23.2,30.53,North,0,0.0,0.0,40,0.00,CLR,FEW,0.00,WeatherDisplay:10.37,2013-01-27 16:43:00,
2013-01-27 11:48:00,45.9,22.9,30.53,North,0,0.0,0.0,40,0.00,CLR,FEW,0.00,WeatherDisplay:10.37,2013-01-27 16:48:00,
2013-01-27 11:53:00,45.9,23.5,30.53,North,0,0.0,0.0,41,0.00,CLR,FEW,0.00,WeatherDisplay:10.37,2013-01-27 16:53:00,
2013-01-27 11:58:00,45.7,23.3,30.50,North,0,0.0,0.0,41,0.00,CLR,FEW,0.00,WeatherDisplay:10.37,2013-01-27 16:58:00,
2013-01-27 12:03:00,46.0,23.6,30.50,North,0,0.0,0.0,41,0.00,CLR,FEW,0.00,WeatherDisplay:10.37,2013-01-27 17:03:00,
2013-01-27 12:08:00,46.2,23.2,30.50,North,0,0.0,0.0,40,0.00,CLR,FEW,0.00,WeatherDisplay:10.37,2013-01-27 17:08:00,
2013-01-27 12:13:00,46.2,23.8,30.50,North,0,0.0,0.0,41,0.00,CLR,FEW,0.00,WeatherDisplay:10.37,2013-01-27 17:13:00,
2013-01-27 12:18:00,46.4,23.4,30.50,North,0,0.0,0.0,40,0.00,CLR,FEW,0.00,WeatherDisplay:10.37,2013-01-27 17:18:00,
2013-01-27 12:23:00,46.4,23.4,30.50,North,0,0.0,0.0,40,0.00,CLR,FEW,0.00,WeatherDisplay:10.37,2013-01-27 17:23:00,
2013-01-27 12:28:00,46.8,24.3,30.50,North,0,0.0,0.0,41,0.00,CLR,FEW,0.00,WeatherDisplay:10.37,2013-01-27 17:28:00,
2013-01-27 12:33:00,46.8,23.7,30.50,North,0,0.0,0.0,40,0.00,CLR,FEW,0.00,WeatherDisplay:10.37,2013-01-27 17:33:00,
2013-01-27 12:38:00,46.8,23.1,30.50,North,0,0.0,0.0,39,0.00,CLR,FEW,0.00,WeatherDisplay:10.37,2013-01-27 17:38:00,
2013-01-27 12:43:00,46.8,23.1,30.50,North,0,0.0,0.0,39,0.00,CLR,FEW,0.00,WeatherDisplay:10.37,2013-01-27 17:43:00,
2013-01-27 12:48:00,46.8,23.1,30.50,North,0,0.0,0.0,39,0.00,CLR,FEW,0.00,WeatherDisplay:10.37,2013-01-27 17:48:00,
2013-01-27 12:53:00,47.1,23.4,30.50,North,0,0.0,0.0,39,0.00,CLR,FEW,0.00,WeatherDisplay:10.37,2013-01-27 17:53:00,
2013-01-27 12:58:00,47.1,22.8,30.50,North,0,0.0,0.0,38,0.00,CLR,FEW,0.00,WeatherDisplay:10.37,2013-01-27 17:58:00,
2013-01-27 13:03:00,47.3,22.9,30.50,North,0,0.0,0.0,38,0.00,CLR,FEW,0.00,WeatherDisplay:10.37,2013-01-27 18:03:00,
2013-01-27 13:08:00,47.3,22.9,30.50,North,0,0.0,0.0,38,0.00,CLR,FEW,0.00,WeatherDisplay:10.37,2013-01-27 18:08:00,
2013-01-27 13:13:00,47.5,23.1,30.48,North,0,0.0,0.0,38,0.00,CLR,FEW,0.00,WeatherDisplay:10.37,2013-01-27 18:13:00,
2013-01-27 13:18:00,47.7,23.3,30.48,North,0,0.0,0.0,38,0.00,CLR,FEW,0.00,WeatherDisplay:10.37,2013-01-27 18:18:00,
2013-01-27 13:23:00,47.7,23.3,30.48,North,0,0.0,0.0,38,0.00,CLR,FEW,0.00,WeatherDisplay:10.37,2013-01-27 18:23:00,
2013-01-27 13:28:00,47.3,22.9,30.48,North,0,0.0,0.0,38,0.00,CLR,FEW,0.00,WeatherDisplay:10.37,2013-01-27 18:28:00,
2013-01-27 13:33:00,47.3,22.9,30.48,North,0,0.0,0.0,38,0.00,CLR,FEW,0.00,WeatherDisplay:10.37,2013-01-27 18:33:00,
2013-01-27 13:38:00,47.1,22.8,30.48,North,0,0.0,0.0,38,0.00,CLR,FEW,0.00,WeatherDisplay:10.37,2013-01-27 18:38:00,
2013-01-27 13:43:00,47.1,22.8,30.48,North,0,0.0,0.0,38,0.00,CLR,FEW,0.00,WeatherDisplay:10.37,2013-01-27 18:43:00,
2013-01-27 13:48:00,47.1,23.4,30.48,North,0,0.0,0.0,39,0.00,CLR,FEW,0.00,WeatherDisplay:10.37,2013-01-27 18:48:00,
2013-01-27 13:53:00,47.3,23.6,30.48,North,0,0.0,0.0,39,0.00,CLR,FEW,0.00,WeatherDisplay:10.37,2013-01-27 18:53:00,
2013-01-27 13:58:00,47.5,23.1,30.48,North,0,0.0,0.0,38,0.00,CLR,FEW,0.00,WeatherDisplay:10.37,2013-01-27 18:58:00,
2013-01-27 14:03:00,47.5,23.7,30.48,North,0,0.0,0.0,39,0.00,CLR,FEW,0.00,WeatherDisplay:10.37,2013-01-27 19:03:00,
2013-01-27 14:08:00,47.7,23.3,30.48,North,0,0.0,0.0,38,0.00,CLR,FEW,0.00,WeatherDisplay:10.37,2013-01-27 19:08:00,
2013-01-27 14:13:00,47.3,22.9,30.50,North,0,0.0,0.0,38,0.00,CLR,FEW,0.00,WeatherDisplay:10.37,2013-01-27 19:13:00,
2013-01-27 14:18:00,47.1,22.8,30.50,North,0,0.0,0.0,38,0.00,CLR,FEW,0.00,WeatherDisplay:10.37,2013-01-27 19:18:00,
2013-01-27 14:23:00,46.9,22.6,30.50,North,0,0.0,0.0,38,0.00,CLR,FEW,0.00,WeatherDisplay:10.37,2013-01-27 19:23:00,
2013-01-27 14:28:00,46.4,22.1,30.50,North,0,0.0,0.0,38,0.00,CLR,FEW,0.00,WeatherDisplay:10.37,2013-01-27 19:28:00,
2013-01-27 14:33:00,46.2,22.0,30.50,North,0,0.0,0.0,38,0.00,CLR,FEW,0.00,WeatherDisplay:10.37,2013-01-27 19:33:00,
2013-01-27 14:38:00,46.4,21.5,30.50,North,0,0.0,0.0,37,0.00,CLR,FEW,0.00,WeatherDisplay:10.37,2013-01-27 19:38:00,
2013-01-27 14:43:00,46.2,22.0,30.48,North,0,0.0,0.0,38,0.00,CLR,FEW,0.00,WeatherDisplay:10.37,2013-01-27 19:43:00,
2013-01-27 14:48:00,46.2,22.0,30.48,North,0,0.0,0.0,38,0.00,CLR,FEW,0.00,WeatherDisplay:10.37,2013-01-27 19:48:00,
2013-01-27 14:53:00,46.4,22.1,30.48,North,0,0.0,0.0,38,0.00,CLR,FEW,0.00,WeatherDisplay:10.37,2013-01-27 19:53:00,
2013-01-27 14:58:00,46.6,22.3,30.48,North,0,0.0,0.0,38,0.00,CLR,FEW,0.00,WeatherDisplay:10.37,2013-01-27 19:58:00,
2013-01-27 15:03:00,46.8,22.5,30.48,North,0,0.0,0.0,38,0.00,CLR,FEW,0.00,WeatherDisplay:10.37,2013-01-27 20:03:00,
2013-01-27 15:08:00,46.9,22.6,30.48,North,0,0.0,0.0,38,0.00,CLR,FEW,0.00,WeatherDisplay:10.37,2013-01-27 20:08:00,
2013-01-27 15:13:00,46.9,22.6,30.48,North,0,0.0,0.0,38,0.00,CLR,FEW,0.00,WeatherDisplay:10.37,2013-01-27 20:13:00,
2013-01-27 15:18:00,46.9,22.6,30.48,North,0,0.0,0.0,38,0.00,CLR,FEW,0.00,WeatherDisplay:10.37,2013-01-27 20:18:00,
2013-01-27 15:23:00,46.8,22.5,30.48,North,0,0.0,0.0,38,0.00,CLR,FEW,0.00,WeatherDisplay:10.37,2013-01-27 20:23:00,
2013-01-27 15:28:00,46.9,22.0,30.48,North,0,0.0,0.0,37,0.00,CLR,FEW,0.00,WeatherDisplay:10.37,2013-01-27 20:28:00,
2013-01-27 15:33:00,46.9,22.0,30.48,North,0,0.0,0.0,37,0.00,CLR,FEW,0.00,WeatherDisplay:10.37,2013-01-27 20:33:00,
2013-01-27 15:38:00,46.9,22.0,30.48,North,0,0.0,0.0,37,0.00,CLR,FEW,0.00,WeatherDisplay:10.37,2013-01-27 20:38:00,
2013-01-27 15:43:00,46.8,21.8,30.48,North,0,0.0,0.0,37,0.00,CLR,FEW,0.00,WeatherDisplay:10.37,2013-01-27 20:43:00,
2013-01-27 15:48:00,46.8,21.8,30.48,North,0,0.0,0.0,37,0.00,CLR,FEW,0.00,WeatherDisplay:10.37,2013-01-27 20:48:00,
2013-01-27 15:53:00,46.6,21.7,30.48,North,0,0.0,0.0,37,0.00,CLR,FEW,0.00,WeatherDisplay:10.37,2013-01-27 20:53:00,
2013-01-27 15:58:00,46.8,21.8,30.48,North,0,0.0,0.0,37,0.00,CLR,FEW,0.00,WeatherDisplay:10.37,2013-01-27 20:58:00,
2013-01-27 16:03:00,46.8,21.8,30.48,North,0,0.0,0.0,37,0.00,CLR,FEW,0.00,WeatherDisplay:10.37,2013-01-27 21:03:00,
2013-01-27 16:08:00,46.8,21.8,30.48,North,0,0.0,0.0,37,0.00,CLR,FEW,0.00,WeatherDisplay:10.37,2013-01-27 21:08:00,
2013-01-27 16:13:00,46.6,21.0,30.48,North,0,0.0,0.0,36,0.00,CLR,FEW,0.00,WeatherDisplay:10.37,2013-01-27 21:13:00,
2013-01-27 16:18:00,46.6,21.7,30.48,North,0,0.0,0.0,37,0.00,CLR,FEW,0.00,WeatherDisplay:10.37,2013-01-27 21:18:00,
2013-01-27 16:23:00,46.6,21.7,30.48,North,0,0.0,0.0,37,0.00,CLR,FEW,0.00,WeatherDisplay:10.37,2013-01-27 21:23:00,
2013-01-27 16:28:00,46.4,21.5,30.50,North,0,0.0,0.0,37,0.00,CLR,FEW,0.00,WeatherDisplay:10.37,2013-01-27 21:28:00,
2013-01-27 16:33:00,46.4,21.5,30.50,North,0,0.0,0.0,37,0.00,CLR,FEW,0.00,WeatherDisplay:10.37,2013-01-27 21:33:00,
2013-01-27 16:38:00,46.2,22.0,30.50,North,0,0.0,0.0,38,0.00,CLR,FEW,0.00,WeatherDisplay:10.37,2013-01-27 21:38:00,
2013-01-27 16:43:00,46.2,22.0,30.48,North,0,0.0,0.0,38,0.00,CLR,FEW,0.00,WeatherDisplay:10.37,2013-01-27 21:43:00,
2013-01-27 16:48:00,46.2,22.0,30.48,North,0,0.0,0.0,38,0.00,CLR,FEW,0.00,WeatherDisplay:10.37,2013-01-27 21:48:00,
2013-01-27 16:53:00,46.0,21.8,30.48,North,0,0.0,0.0,38,0.00,CLR,FEW,0.00,WeatherDisplay:10.37,2013-01-27 21:53:00,
2013-01-27 16:58:00,46.0,21.8,30.48,North,0,0.0,0.0,38,0.00,CLR,FEW,0.00,WeatherDisplay:10.37,2013-01-27 21:58:00,
2013-01-27 17:03:00,45.9,21.7,30.48,North,0,0.0,0.0,38,0.00,CLR,FEW,0.00,WeatherDisplay:10.37,2013-01-27 22:03:00,
2013-01-27 17:08:00,45.7,21.5,30.48,North,0,0.0,0.0,38,0.00,CLR,FEW,0.00,WeatherDisplay:10.37,2013-01-27 22:08:00,
2013-01-27 17:13:00,45.5,21.3,30.48,North,0,0.0,0.0,38,0.00,CLR,FEW,0.00,WeatherDisplay:10.37,2013-01-27 22:13:00,
2013-01-27 17:18:00,45.5,21.3,30.48,North,0,0.0,0.0,38,0.00,CLR,FEW,0.00,WeatherDisplay:10.37,2013-01-27 22:18:00,
2013-01-27 17:23:00,45.5,21.3,30.48,North,0,0.0,0.0,38,0.00,CLR,FEW,0.00,WeatherDisplay:10.37,2013-01-27 22:23:00,
2013-01-27 17:28:00,45.3,21.8,30.48,North,0,0.0,0.0,39,0.00,CLR,FEW,0.00,WeatherDisplay:10.37,2013-01-27 22:28:00,
2013-01-27 17:33:00,45.3,21.2,30.48,North,0,0.0,0.0,38,0.00,CLR,FEW,0.00,WeatherDisplay:10.37,2013-01-27 22:33:00,
2013-01-27 17:38:00,45.1,21.6,30.48,North,0,0.0,0.0,39,0.00,CLR,FEW,0.00,WeatherDisplay:10.37,2013-01-27 22:38:00,
2013-01-27 17:43:00,45.0,21.5,30.48,North,0,0.0,0.0,39,0.00,CLR,FEW,0.00,WeatherDisplay:10.37,2013-01-27 22:43:00,
2013-01-27 17:48:00,45.0,21.5,30.48,North,0,0.0,0.0,39,0.00,CLR,FEW,0.00,WeatherDisplay:10.37,2013-01-27 22:48:00,
2013-01-27 17:53:00,45.0,21.5,30.48,North,0,0.0,0.0,39,0.00,CLR,FEW,0.00,WeatherDisplay:10.37,2013-01-27 22:53:00,
2013-01-27 17:58:00,44.8,21.3,30.50,North,0,0.0,0.0,39,0.00,CLR,FEW,0.00,WeatherDisplay:10.37,2013-01-27 22:58:00,
2013-01-27 18:03:00,44.8,21.3,30.50,North,0,0.0,0.0,39,0.00,CLR,FEW,0.00,WeatherDisplay:10.37,2013-01-27 23:03:00,
2013-01-27 18:08:00,44.6,21.1,30.50,North,0,0.0,0.0,39,0.00,CLR,FEW,0.00,WeatherDisplay:10.37,2013-01-27 23:08:00,
2013-01-27 18:13:00,44.6,21.1,30.50,North,0,0.0,0.0,39,0.00,CLR,FEW,0.00,WeatherDisplay:10.37,2013-01-27 23:13:00,
2013-01-27 18:18:00,44.6,21.1,30.50,North,0,0.0,0.0,39,0.00,CLR,FEW,0.00,WeatherDisplay:10.37,2013-01-27 23:18:00,
2013-01-27 18:23:00,44.6,21.1,30.50,North,0,0.0,0.0,39,0.00,CLR,FEW,0.00,WeatherDisplay:10.37,2013-01-27 23:23:00,
2013-01-27 18:28:00,44.6,21.7,30.50,North,0,0.0,0.0,40,0.00,CLR,FEW,0.00,WeatherDisplay:10.37,2013-01-27 23:28:00,
2013-01-27 18:33:00,44.6,21.7,30.50,North,0,0.0,0.0,40,0.00,CLR,FEW,0.00,WeatherDisplay:10.37,2013-01-27 23:33:00,
2013-01-27 18:38:00,44.8,21.9,30.50,North,0,0.0,0.0,40,0.00,CLR,FEW,0.00,WeatherDisplay:10.37,2013-01-27 23:38:00,
2013-01-27 18:43:00,44.8,21.9,30.50,North,0,0.0,0.0,40,0.00,CLR,FEW,0.00,WeatherDisplay:10.37,2013-01-27 23:43:00,
2013-01-27 18:48:00,44.8,21.9,30.50,North,0,0.0,0.0,40,0.00,CLR,FEW,0.00,WeatherDisplay:10.37,2013-01-27 23:48:00,
2013-01-27 18:53:00,44.8,21.9,30.50,North,0,0.0,0.0,40,0.00,CLR,FEW,0.00,WeatherDisplay:10.37,2013-01-27 23:53:00,
2013-01-27 18:58:00,45.0,22.1,30.50,North,0,0.0,0.0,40,0.00,CLR,FEW,0.00,WeatherDisplay:10.37,2013-01-27 23:58:00,
2013-01-27 19:03:00,44.8,21.9,30.50,North,0,0.0,0.0,40,0.00,CLR,FEW,0.00,WeatherDisplay:10.37,2013-01-28 00:03:00,
2013-01-27 19:08:00,45.0,21.5,30.50,North,0,0.0,0.0,39,0.00,CLR,FEW,0.00,WeatherDisplay:10.37,2013-01-28 00:08:00,
2013-01-27 19:13:00,44.8,21.3,30.50,North,0,0.0,0.0,39,0.00,CLR,FEW,0.00,WeatherDisplay:10.37,2013-01-28 00:13:00,
2013-01-27 19:18:00,44.8,21.3,30.50,North,0,0.0,0.0,39,0.00,CLR,FEW,0.00,WeatherDisplay:10.37,2013-01-28 00:18:00,
2013-01-27 19:23:00,44.8,21.3,30.50,North,0,0.0,0.0,39,0.00,CLR,FEW,0.00,WeatherDisplay:10.37,2013-01-28 00:23:00,
2013-01-27 19:28:00,44.8,21.3,30.50,North,0,0.0,0.0,39,0.00,CLR,FEW,0.00,WeatherDisplay:10.37,2013-01-28 00:28:00,
2013-01-27 19:33:00,44.8,21.3,30.50,North,0,0.0,0.0,39,0.00,CLR,FEW,0.00,WeatherDisplay:10.37,2013-01-28 00:33:00,
2013-01-27 19:38:00,44.8,21.3,30.50,North,0,0.0,0.0,39,0.00,CLR,FEW,0.00,WeatherDisplay:10.37,2013-01-28 00:38:00,
2013-01-27 19:43:00,44.6,21.1,30.50,North,0,0.0,0.0,39,0.00,CLR,FEW,0.00,WeatherDisplay:10.37,2013-01-28 00:43:00,
2013-01-27 19:48:00,44.6,21.1,30.50,North,0,0.0,0.0,39,0.00,CLR,FEW,0.00,WeatherDisplay:10.37,2013-01-28 00:48:00,
2013-01-27 19:53:00,44.6,21.1,30.50,North,0,0.0,0.0,39,0.00,CLR,FEW,0.00,WeatherDisplay:10.37,2013-01-28 00:53:00,
2013-01-27 19:58:00,44.8,21.3,30.50,North,0,0.0,0.0,39,0.00,CLR,FEW,0.00,WeatherDisplay:10.37,2013-01-28 00:58:00,
2013-01-27 20:03:00,44.8,21.3,30.50,North,0,0.0,0.0,39,0.00,CLR,FEW,0.00,WeatherDisplay:10.37,2013-01-28 01:03:00,
2013-01-27 20:08:00,44.6,21.1,30.50,North,0,0.0,0.0,39,0.00,CLR,FEW,0.00,WeatherDisplay:10.37,2013-01-28 01:08:00,
2013-01-27 20:13:00,44.6,21.1,30.50,North,0,0.0,0.0,39,0.00,CLR,FEW,0.00,WeatherDisplay:10.37,2013-01-28 01:13:00,
2013-01-27 20:18:00,44.4,21.6,30.50,North,0,0.0,0.0,40,0.00,CLR,FEW,0.00,WeatherDisplay:10.37,2013-01-28 01:18:00,
2013-01-27 20:23:00,44.4,21.6,30.50,North,0,0.0,0.0,40,0.00,CLR,FEW,0.00,WeatherDisplay:10.37,2013-01-28 01:23:00,
2013-01-27 20:28:00,44.4,21.6,30.50,North,0,0.0,0.0,40,0.00,CLR,FEW,0.00,WeatherDisplay:10.37,2013-01-28 01:28:00,
2013-01-27 20:33:00,44.4,21.6,30.50,North,0,0.0,0.0,40,0.00,CLR,FEW,0.00,WeatherDisplay:10.37,2013-01-28 01:33:00,
2013-01-27 20:38:00,44.4,21.6,30.50,North,0,0.0,0.0,40,0.00,CLR,FEW,0.00,WeatherDisplay:10.37,2013-01-28 01:38:00,
2013-01-27 20:43:00,44.2,21.4,30.50,North,0,0.0,0.0,40,0.00,CLR,FEW,0.00,WeatherDisplay:10.37,2013-01-28 01:43:00,
2013-01-27 20:48:00,44.2,21.4,30.50,North,0,0.0,0.0,40,0.00,CLR,FEW,0.00,WeatherDisplay:10.37,2013-01-28 01:48:00,
2013-01-27 20:53:00,44.2,21.4,30.50,North,0,0.0,0.0,40,0.00,CLR,FEW,0.00,WeatherDisplay:10.37,2013-01-28 01:53:00,
2013-01-27 20:58:00,44.2,21.4,30.50,North,0,0.0,0.0,40,0.00,CLR,FEW,0.00,WeatherDisplay:10.37,2013-01-28 01:58:00,
2013-01-27 21:03:00,44.2,20.8,30.50,North,0,0.0,0.0,39,0.00,CLR,FEW,0.00,WeatherDisplay:10.37,2013-01-28 02:03:00,
2013-01-27 21:08:00,44.2,20.8,30.50,North,0,0.0,0.0,39,0.00,CLR,FEW,0.00,WeatherDisplay:10.37,2013-01-28 02:08:00,
2013-01-27 21:13:00,44.2,21.4,30.48,North,0,0.0,0.0,40,0.00,CLR,FEW,0.00,WeatherDisplay:10.37,2013-01-28 02:13:00,
2013-01-27 21:18:00,44.4,21.0,30.48,North,0,0.0,0.0,39,0.00,CLR,FEW,0.00,WeatherDisplay:10.37,2013-01-28 02:18:00,
2013-01-27 21:23:00,44.6,21.1,30.48,North,0,0.0,0.0,39,0.00,CLR,FEW,0.00,WeatherDisplay:10.37,2013-01-28 02:23:00,
2013-01-27 21:28:00,44.6,21.1,30.48,North,0,0.0,0.0,39,0.00,CLR,FEW,0.00,WeatherDisplay:10.37,2013-01-28 02:28:00,
2013-01-27 21:33:00,44.6,21.1,30.48,North,0,0.0,0.0,39,0.00,CLR,FEW,0.00,WeatherDisplay:10.37,2013-01-28 02:33:00,
2013-01-27 21:38:00,44.6,20.5,30.48,North,0,0.0,0.0,38,0.00,CLR,FEW,0.00,WeatherDisplay:10.37,2013-01-28 02:38:00,
2013-01-27 21:43:00,44.8,21.3,30.50,North,0,0.0,0.0,39,0.00,CLR,FEW,0.00,WeatherDisplay:10.37,2013-01-28 02:43:00,
2013-01-27 21:48:00,44.8,21.3,30.50,North,0,0.0,0.0,39,0.00,CLR,FEW,0.00,WeatherDisplay:10.37,2013-01-28 02:48:00,
2013-01-27 21:53:00,44.8,21.3,30.50,North,0,0.0,0.0,39,0.00,CLR,FEW,0.00,WeatherDisplay:10.37,2013-01-28 02:53:00,
2013-01-27 21:58:00,44.8,20.7,30.50,North,0,0.0,0.0,38,0.00,CLR,FEW,0.00,WeatherDisplay:10.37,2013-01-28 02:58:00,
2013-01-27 22:03:00,44.8,21.3,30.50,North,0,0.0,0.0,39,0.00,CLR,FEW,0.00,WeatherDisplay:10.37,2013-01-28 03:03:00,
2013-01-27 22:08:00,45.0,21.5,30.50,North,0,0.0,0.0,39,0.00,CLR,FEW,0.00,WeatherDisplay:10.37,2013-01-28 03:08:00,
2013-01-27 22:13:00,45.0,21.5,30.50,North,0,0.0,0.0,39,0.00,CLR,FEW,0.00,WeatherDisplay:10.37,2013-01-28 03:13:00,
2013-01-27 22:18:00,45.0,21.5,30.50,North,0,0.0,0.0,39,0.00,CLR,FEW,0.00,WeatherDisplay:10.37,2013-01-28 03:18:00,
2013-01-27 22:23:00,45.1,22.2,30.50,North,0,0.0,0.0,40,0.00,CLR,FEW,0.00,WeatherDisplay:10.37,2013-01-28 03:23:00,
2013-01-27 22:28:00,45.1,22.2,30.48,North,0,0.0,0.0,40,0.00,CLR,FEW,0.00,WeatherDisplay:10.37,2013-01-28 03:28:00,
2013-01-27 22:33:00,45.1,22.2,30.48,North,0,0.0,0.0,40,0.00,CLR,FEW,0.00,WeatherDisplay:10.37,2013-01-28 03:33:00,
2013-01-27 22:38:00,45.0,22.1,30.48,North,0,0.0,0.0,40,0.00,CLR,FEW,0.00,WeatherDisplay:10.37,2013-01-28 03:38:00,
2013-01-27 22:43:00,45.0,22.1,30.48,North,0,0.0,0.0,40,0.00,CLR,FEW,0.00,WeatherDisplay:10.37,2013-01-28 03:43:00,
2013-01-27 22:48:00,44.8,22.5,30.48,North,0,0.0,0.0,41,0.00,CLR,FEW,0.00,WeatherDisplay:10.37,2013-01-28 03:48:00,
2013-01-27 22:53:00,43.7,20.3,30.48,North,0,0.0,0.0,39,0.00,CLR,FEW,0.00,WeatherDisplay:10.37,2013-01-28 03:53:00,
2013-01-27 22:58:00,42.3,20.2,30.48,North,0,0.0,0.0,41,0.00,CLR,FEW,0.00,WeatherDisplay:10.37,2013-01-28 03:58:00,
2013-01-27 23:03:00,41.4,20.0,30.48,North,0,0.0,0.0,42,0.00,CLR,FEW,0.00,WeatherDisplay:10.37,2013-01-28 04:03:00,
2013-01-27 23:08:00,41.0,20.2,30.48,North,0,0.0,0.0,43,0.00,CLR,FEW,0.00,WeatherDisplay:10.37,2013-01-28 04:08:00,
2013-01-27 23:13:00,40.5,20.8,30.48,North,0,0.0,0.0,45,0.00,CLR,FEW,0.00,WeatherDisplay:10.37,2013-01-28 04:13:00,
2013-01-27 23:18:00,40.1,21.0,30.48,North,0,0.0,0.0,46,0.00,CLR,FEW,0.00,WeatherDisplay:10.37,2013-01-28 04:18:00,
2013-01-27 23:23:00,39.7,20.6,30.48,North,0,0.0,0.0,46,0.00,CLR,FEW,0.00,WeatherDisplay:10.37,2013-01-28 04:23:00,
2013-01-27 23:28:00,39.6,21.0,30.48,North,0,0.0,0.0,47,0.00,CLR,FEW,0.00,WeatherDisplay:10.37,2013-01-28 04:28:00,
2013-01-27 23:33:00,39.4,21.3,30.48,North,0,0.0,0.0,48,0.00,CLR,FEW,0.00,WeatherDisplay:10.37,2013-01-28 04:33:00,
2013-01-27 23:38:00,39.2,21.1,30.48,North,0,0.0,0.0,48,0.00,CLR,FEW,0.00,WeatherDisplay:10.37,2013-01-28 04:38:00,
2013-01-27 23:43:00,39.0,21.5,30.48,North,0,0.0,0.0,49,0.00,CLR,FEW,0.00,WeatherDisplay:10.37,2013-01-28 04:43:00,
2013-01-27 23:48:00,39.0,21.5,30.48,North,0,0.0,0.0,49,0.00,CLR,FEW,0.00,WeatherDisplay:10.37,2013-01-28 04:48:00,
2013-01-27 23:53:00,38.8,21.3,30.48,North,0,0.0,0.0,49,0.00,CLR,FEW,0.00,WeatherDisplay:10.37,2013-01-28 04:53:00,
2013-01-27 23:58:00,38.8,21.8,30.48,North,0,0.0,0.0,50,0.00,CLR,FEW,0.00,WeatherDisplay:10.37,2013-01-28 04:58:00,